LMRST-SAT

Last updated on Sun Apr 12 2026 00:03:55 GMT+0000 (Coordinated Universal Time)

1 40971U 15058H 26101.40851728 .00001817 00000+0 17488-3 0 9992 2 40971 64.7744 122.6578 0130262 84.8218 276.7744 14.90203744103602
UTC large
Height (km)
Speed (km/s)
/
Latitude / Longitude
Inclination (degrees)
Orbital Period (minutes)
Azimuth
Elevation
Range (km)
Doppler Factor

Next 0 passes for location: London (51.5072 / 0.1276)

Sorry there are no passes over London.